• In Portugal
  • List of Countries
  • For 7 days
  • Water Temperature
  • Satellite Maps
  • Weather Map
  • Weather Widgets
  • user-avatar
    Login

    Hourly Weather Rakowice

    Today, 18 July, Wednesday

    Time Temperature Precipitation Wind Pressure Humidity
    00:00 +18°C° 0.1 mm 4 mps 740 mmHg 93%
    01:00 +18°C° 0.1 mm 4 mps 740 mmHg 94%
    02:00 +18°C° 0.4 mm 4 mps 740 mmHg 94%
    03:00 +17°C° 0.4 mm 5 mps 740 mmHg 94%
    04:00 +17°C° 0.4 mm 5 mps 740 mmHg 94%
    05:00 +17°C° 0.9 mm 5 mps 740 mmHg 93%
    06:00 +17°C° 0.9 mm 6 mps 741 mmHg 93%
    07:00 +17°C° 0.9 mm 6 mps 741 mmHg 93%
    08:00 +17°C° 1.2 mm 6 mps 741 mmHg 92%
    09:00 +19°C° 1.2 mm 6 mps 741 mmHg 92%
    10:00 +18°C° 1.2 mm 7 mps 742 mmHg 91%
    11:00 +19°C° 0.9 mm 6 mps 742 mmHg 91%
    12:00 +19°C° 0.9 mm 6 mps 742 mmHg 90%
    13:00 +19°C° 0.9 mm 6 mps 742 mmHg 90%
    14:00 +20°C° 0.4 mm 6 mps 742 mmHg 88%
    15:00 +20°C° 0.4 mm 5 mps 742 mmHg 87%
    16:00 +20°C° 0.4 mm 5 mps 743 mmHg 85%
    17:00 +20°C° 0.2 mm 5 mps 743 mmHg 87%
    18:00 +19°C° 0.2 mm 4 mps 743 mmHg 89%
    19:00 +19°C° 0.2 mm 3 mps 743 mmHg 91%
    20:00 +19°C° 0.2 mm 3 mps 743 mmHg 92%
    21:00 +19°C° 0.2 mm 3 mps 744 mmHg 93%
    22:00 +18°C° 0.2 mm 2 mps 744 mmHg 95%
    23:00 +18°C° 0.3 mm 2 mps 744 mmHg 95%

    Tomorrow, 19 July, Thursday

    Time Temperature Precipitation Wind Pressure Humidity
    00:00 +18°C° 0.3 mm 2 mps 744 mmHg 95%
    01:00 +18°C° 0.3 mm 2 mps 744 mmHg 95%
    02:00 +17°C° 0.1 mm 3 mps 744 mmHg 95%
    03:00 +17°C° 0.1 mm 3 mps 744 mmHg 95%
    04:00 +17°C° 0.1 mm 3 mps 744 mmHg 95%
    05:00 +17°C° 0.1 mm 4 mps 744 mmHg 94%
    06:00 +18°C° 0.1 mm 4 mps 744 mmHg 93%
    07:00 +18°C° 0.1 mm 4 mps 744 mmHg 91%
    08:00 +19°C° 0.2 mm 4 mps 745 mmHg 90%
    09:00 +19°C° 0.2 mm 5 mps 745 mmHg 88%
    10:00 +19°C° 0.2 mm 5 mps 745 mmHg 87%
    11:00 +19°C° 0.4 mm 5 mps 745 mmHg 87%
    12:00 +19°C° 0.4 mm 5 mps 745 mmHg 87%
    13:00 +19°C° 0.4 mm 4 mps 745 mmHg 87%
    14:00 +19°C° 0.3 mm 4 mps 745 mmHg 88%
    15:00 +19°C° 0.3 mm 4 mps 745 mmHg 89%
    16:00 +19°C° 0.3 mm 3 mps 745 mmHg 90%
    17:00 +19°C° 0.1 mm 3 mps 745 mmHg 90%
    18:00 +20°C° 0.1 mm 3 mps 745 mmHg 90%
    19:00 +20°C° 0.1 mm 3 mps 745 mmHg 89%
    20:00 +19°C° 0 mm 2 mps 745 mmHg 91%
    21:00 +18°C° 0 mm 2 mps 745 mmHg 93%
    22:00 +17°C° 0 mm 2 mps 745 mmHg 95%
    23:00 +17°C° 0 mm 2 mps 745 mmHg 95%

    Day after tomorrow, 20 July, Friday

    Time Temperature Precipitation Wind Pressure Humidity
    00:00 +17°C° 0 mm 2 mps 745 mmHg 95%
    01:00 +17°C° 0 mm 2 mps 745 mmHg 95%
    02:00 +17°C° 0 mm 2 mps 745 mmHg 95%
    03:00 +16°C° 0 mm 2 mps 745 mmHg 95%
    04:00 +16°C° 0 mm 2 mps 745 mmHg 95%
    05:00 +17°C° 0 mm 2 mps 745 mmHg 91%
    06:00 +18°C° 0 mm 2 mps 745 mmHg 86%
    07:00 +19°C° 0 mm 2 mps 745 mmHg 82%
    08:00 +20°C° 0 mm 2 mps 745 mmHg 72%
    09:00 +23°C° 0 mm 2 mps 745 mmHg 62%
    10:00 +24°C° 0 mm 2 mps 745 mmHg 52%
    11:00 +25°C° 0 mm 2 mps 745 mmHg 48%
    12:00 +26°C° 0 mm 2 mps 745 mmHg 45%
    13:00 +27°C° 0 mm 2 mps 744 mmHg 41%
    14:00 +27°C° 0 mm 2 mps 744 mmHg 40%
    15:00 +27°C° 0 mm 2 mps 744 mmHg 40%
    16:00 +27°C° 0 mm 2 mps 744 mmHg 39%
    17:00 +26°C° 0 mm 2 mps 744 mmHg 45%
    18:00 +25°C° 0 mm 2 mps 743 mmHg 51%
    19:00 +23°C° 0 mm 1 mps 743 mmHg 57%
    20:00 +22°C° 0 mm 1 mps 743 mmHg 60%
    21:00 +20°C° 0 mm 1 mps 743 mmHg 63%
    22:00 +19°C° 0 mm 1 mps 743 mmHg 66%
    23:00 +18°C° 0 mm 1 mps 743 mmHg 68%

    21 July, Saturday

    Time Temperature Precipitation Wind Pressure Humidity
    00:00 +18°C° 0 mm 1 mps 743 mmHg 70%
    01:00 +16°C° 0 mm 1 mps 743 mmHg 71%
    02:00 +16°C° 0 mm 1 mps 743 mmHg 72%
    03:00 +16°C° 0 mm 1 mps 742 mmHg 73%
    04:00 +16°C° 0 mm 1 mps 742 mmHg 74%
    05:00 +18°C° 0 mm 1 mps 742 mmHg 69%
    06:00 +20°C° 0 mm 1 mps 742 mmHg 65%
    07:00 +22°C° 0 mm 1 mps 742 mmHg 61%
    08:00 +24°C° 0 mm 1 mps 742 mmHg 56%
    09:00 +25°C° 0 mm 1 mps 742 mmHg 51%
    10:00 +27°C° 0 mm 1 mps 743 mmHg 46%
    11:00 +28°C° 0 mm 1 mps 742 mmHg 44%
    12:00 +29°C° 0 mm 1 mps 742 mmHg 42%
    13:00 +29°C° 0 mm 1 mps 742 mmHg 40%
    14:00 +29°C° 0 mm 1 mps 742 mmHg 41%
    15:00 +28°C° 0 mm 1 mps 741 mmHg 43%
    16:00 +28°C° 0 mm 1 mps 741 mmHg 44%
    17:00 +27°C° 0 mm 2 mps 741 mmHg 50%
    18:00 +26°C° 0 mm 2 mps 741 mmHg 56%
    19:00 +24°C° 0 mm 2 mps 741 mmHg 62%
    20:00 +23°C° 0 mm 2 mps 741 mmHg 65%
    21:00 +21°C° 0 mm 2 mps 741 mmHg 68%
    22:00 +20°C° 0 mm 2 mps 741 mmHg 72%
    23:00 +19°C° 0 mm 2 mps 741 mmHg 73%

    22 July, Sunday

    Time Temperature Precipitation Wind Pressure Humidity
    00:00 +19°C° 0 mm 2 mps 741 mmHg 75%
    01:00 +18°C° 0 mm 2 mps 741 mmHg 76%
    02:00 +19°C° 0 mm 1 mps 741 mmHg 77%
    03:00 +18°C° 0 mm 1 mps 741 mmHg 79%
    04:00 +18°C° 0 mm 1 mps 741 mmHg 80%
    05:00 +19°C° 0 mm 1 mps 741 mmHg 76%
    06:00 +20°C° 0 mm 1 mps 741 mmHg 72%
    07:00 +22°C° 0 mm 1 mps 742 mmHg 68%
    08:00 +23°C° 0 mm 2 mps 742 mmHg 63%
    09:00 +24°C° 0 mm 2 mps 742 mmHg 58%
    10:00 +25°C° 0 mm 3 mps 742 mmHg 52%
    11:00 +25°C° 0 mm 3 mps 742 mmHg 50%
    12:00 +26°C° 0 mm 4 mps 742 mmHg 47%
    13:00 +26°C° 0 mm 4 mps 742 mmHg 44%
    14:00 +26°C° 0 mm 4 mps 742 mmHg 45%
    15:00 +26°C° 0 mm 4 mps 742 mmHg 46%
    16:00 +25°C° 0 mm 4 mps 742 mmHg 46%
    17:00 +24°C° 0 mm 3 mps 742 mmHg 51%
    18:00 +22°C° 0 mm 3 mps 742 mmHg 56%
    19:00 +23°C° 0 mm 2 mps 743 mmHg 61%
    20:00 +20°C° 0 mm 2 mps 743 mmHg 65%
    21:00 +19°C° 0 mm 2 mps 743 mmHg 68%
    22:00 +19°C° 0 mm 1 mps 744 mmHg 72%
    23:00 +18°C° 0 mm 1 mps 744 mmHg 74%

    23 July, Monday

    Time Temperature Precipitation Wind Pressure Humidity
    00:00 +18°C° 0 mm 1 mps 744 mmHg 76%
    01:00 +16°C° 0 mm 1 mps 744 mmHg 78%
    02:00 +16°C° 0 mm 1 mps 744 mmHg 81%
    03:00 +16°C° 0 mm 1 mps 744 mmHg 83%
    04:00 +15°C° 0 mm 1 mps 745 mmHg 85%
    05:00 +18°C° 0 mm 1 mps 745 mmHg 81%
    06:00 +18°C° 0 mm 2 mps 745 mmHg 77%
    07:00 +20°C° 0 mm 2 mps 745 mmHg 73%
    08:00 +21°C° 0.1 mm 2 mps 745 mmHg 68%
    09:00 +23°C° 0.1 mm 2 mps 745 mmHg 63%
    10:00 +25°C° 0.1 mm 2 mps 745 mmHg 57%
    11:00 +25°C° 0.1 mm 3 mps 745 mmHg 56%
    12:00 +25°C° 0.1 mm 3 mps 745 mmHg 54%
    13:00 +26°C° 0.1 mm 3 mps 745 mmHg 52%
    14:00 +26°C° 0 mm 3 mps 745 mmHg 51%
    15:00 +26°C° 0 mm 3 mps 745 mmHg 51%
    16:00 +26°C° 0 mm 3 mps 744 mmHg 50%
    17:00 +25°C° 0 mm 3 mps 744 mmHg 54%
    18:00 +24°C° 0 mm 2 mps 745 mmHg 58%
    19:00 +23°C° 0 mm 2 mps 745 mmHg 62%
    20:00 +22°C° 0 mm 1 mps 745 mmHg 67%
    21:00 +20°C° 0 mm 1 mps 745 mmHg 71%
    22:00 +19°C° 0 mm 1 mps 745 mmHg 76%
    23:00 +18°C° 0 mm 1 mps 745 mmHg 79%
    Show more